Theta_e
320 318 318 318 318 317 317 318 321 320 321 319 318 318 317 317 316 316 316 315 315 315
321 320 319 319 321 319 320 320 320 319 318 318 317 317 317 315 315 316 316 316 316 315
320 321 320 321 320 320 321 320 319 317 316 315 315 316 316 315 316 314 315 315 315 316
319 320 321 320 320 320 320 320 316 316 314 314 315 316 315 315 314 313 313 314 314 312
321 320 321 321 320 320 319 319 316 317 315 314 313 314 313 312 313 311 311 310 311 311
320 319 320 322 322 321 319 318 316 317 314 312 311 311 313 312 312 310 310 309 310 310
320 320 320 321 321 320 319 316 317 316 314 313 311 310 312 312 311 310 309 309 310 310
321 321 320 321 321 320 318 317 317 315 314 314 311 308 309 313 312 310 308 308 308 310
318 319 320 320 321 320 320 319 317 316 314 313 310 304 306 310 312 310 309 308 307 308
318 318 318 319 320 320 320 320 318 317 314 313 311 302 302 306 314 311 310 309 307 305
317 316 318 318 319 321 321 320 319 318 317 314 310 302 301 303 313 312 311 311 310 308
316 318 318 318 319 320 321 322 319 318 316 316 314 300 301 304 315 314 312 312 309 310
317 319 319 317 321 323 323 319 319 318 318 311 316 299 301 302 312 313 313 314 309 304
320 321 321 320 318 325 324 322 321 319 320 316 311 310 301 300 312 309 312 311 311 312
Wind_Speed
10 7 7 8 7 7 7 8 9 9 9 10 10 9 9 6 8 8 6 8 6 4
7 8 7 7 7 6 7 8 10 10 11 10 10 10 10 8 7 8 8 8 7 4
6 6 6 6 8 8 8 10 9 10 9 10 11 10 10 9 9 8 7 8 9 4
6 7 6 5 7 9 8 9 10 9 9 9 10 11 9 9 10 11 10 12 9 8
6 6 7 6 8 8 9 7 8 9 8 8 10 10 11 11 10 10 11 12 11 10
6 6 7 6 6 7 7 9 7 8 8 8 11 11 9 9 10 10 11 11 12 11
5 6 7 7 5 8 7 7 8 10 9 7 9 10 10 10 10 9 9 10 10 11
4 5 7 7 5 6 6 4 7 7 6 7 8 7 9 9 7 7 6 6 8 9
6 5 5 6 4 7 5 4 6 7 5 8 6 11 13 10 7 8 9 9 10 7
5 2 4 6 6 6 5 5 6 6 5 7 7 12 13 12 3 5 7 8 7 7
7 7 6 5 7 6 5 4 4 5 5 6 5 9 13 16 6 5 5 6 5 5
6 6 6 6 6 6 4 3 4 5 6 5 4 9 10 10 2 2 3 4 4 5
4 5 4 4 4 2 4 3 3 4 4 4 3 5 9 10 6 6 2 5 4 6
3 6 3 2 4 3 1 0 1 2 2 4 2 3 5 8 6 6 7 4 6 4
Wind_Direction
25 2 5 349 345 346 351 347 3 350 3 5 355 353 352 343 349 350 336 323 317 298
27 2 349 340 338 358 358 355 6 11 357 10 2 355 355 349 354 344 340 325 315 277
17 354 352 357 357 14 3 16 14 6 13 3 353 356 355 353 352 357 349 346 349 356
7 354 359 11 6 14 16 20 0 16 1 5 355 358 357 4 6 11 6 4 13 28
0 355 5 359 24 15 12 18 10 357 24 356 12 355 5 10 11 23 18 10 18 22
359 3 5 1 35 9 13 11 0 13 31 1 12 3 1 16 15 39 24 17 16 25
23 357 23 20 27 26 22 24 21 1 31 354 26 11 3 13 35 33 32 22 20 28
90 26 19 6 31 32 36 18 37 9 14 13 25 16 356 8 42 43 37 32 31 26
14 46 38 351 19 42 15 25 33 4 29 33 25 340 348 2 45 35 31 40 34 34
354 52 77 28 19 25 12 37 25 13 53 49 20 356 342 344 73 52 41 48 58 42
12 28 19 37 7 20 19 42 20 21 46 55 45 358 344 340 52 50 52 51 65 51
19 9 22 24 8 356 9 22 45 13 56 61 49 358 348 341 331 96 69 91 33 32
31 333 38 10 337 355 357 31 35 31 63 59 98 23 0 0 322 10 14 126 149 71
4 303 100 39 296 309 359 286 99 323 101 127 333 105 20 4 7 354 331 27 23 31